APSTAR 5 (TELSTAR 18) (28364 NORAD) Tracking and Keplerian Element Data

This shows tracking and keplerian element data for the satellite.

Feedback or suggestion? Click here.




ElementValue
Catalog28364
NameAPSTAR 5 (TELSTAR 18)
Epoch Orbit5522
Epoch Day199.25529536
Epoch Year2019
RAAN97.0221
Inclination0.6394
Eccentricity0.0005276
Argument of Perigee270.7211
Mean Anonmoly61.1141
Mean Motion0.99044739
Decay Rate3.7E-07
L11 28364U 04024A 19199.25529536 .00000037 00000-0 00000+0 0 9998
L22 28364 0.6394 97.0221 0005276 270.7211 61.1141 0.99044739 55221

Live tracking and technical data element details for APSTAR 5 (TELSTAR 18) (NORAD 28364). APSTAR 5 (TELSTAR 18) can be tracked NOW for your location showing map with azimuth and elevation plus other details from your city location.

Track the satellite on the map from your city or location and see movement details for azimuth, elevation, latitude, longitude, range, height, and movement on the map or in text.







IsCatalogInMostPopularTable: catalog: 28364, numindb: 252
Update: records affected: 1



GetName: 28364 APSTAR 5 (TELSTAR 18)

Hit Count: updated at: Sun, 13 Jun 2021 10:21:29 GMT